COSMOS 1691 DEB, 17168

Orbit data source: Space-Track

COSMOS 1691 DEB, 17168 is space debris in LEO originally from a launch on Wed, 09 Oct 1985 UTC launched from the Plesetsk Missile And Space Complex (PKMTR). Debris objects in space refer to the collection of defunct objects orbiting the Earth. Examples of debris include non-operational satellites, rocket bodies, and fragments generated from explosions, collisions, or faulty payload assembly.

Loading next visibility...
Identifier
17168, 1985-094S
Orbit
LEO
Country
Flag of CISCIS
Related business
Manufacturer
Unknown
Mission
Spacecraft
Bus & Motor
Unknown
Mass
Unknown
Launch date (UTC)
1985-10-09 (40 years ago)
Launch vehicle
Unknown
Launch site
Plesetsk Missile And Space Complex (PKMTR)
Object type
Payload
Rocket body
Debris
Shape & HBR
Unknown shape, 0.1 m
Radar Cross Section
Small (<0.1 m²)

Expand to show TLE details & history
Last TLE update: 13 hours ago

TLE from 13 hours ago
0 COSMOS 1691 DEB
1 17168U 85094S   26037.08840910  .00003778  00000-0  10240-1 0  9990
2 17168  82.5519 256.0789 0032067  34.8069 123.9427 13.13743529886200
Epoch: 2026-02-06T02:07Z
TLE epoch observation values (Epoch: 2026-02-06T02:07:18.546Z)
Latitude
20.76782°
Longitude
-94.807°
Altitude
1,224.827 km
Speed
7.237 km/s
True Right ascension
04h 53m 00s
True Declination
20° 39' 40"
Sunlit
Object was in daylight at epoch
Visualization orbit readout
Latitude
Unknown
Longitude
Unknown
Altitude
Unknown
Speed
Unknown
Apparent Right ascension
Unknown
Apparent Declination
Unknown
Sunlit
N/A
Visualization observer readout
Local Sidereal Time
17:10:54
Azimuth
Unknown
Elevation
Unknown
Doppler factor
Unknown
Orbital elements
Apogee altitude
1,230.281 km
Perigee altitude
1,181.641 km
Semi-major axis
7,584.098 km
Eccentricity
0.00321
Inclination
82.5519°
RAAN
256.0789°
Arg. of periapsis
34.8069°
True anomaly
124.24686°
Mean anomaly
123.9427°
Eccentric anomaly
124.09485°
Mean motion
3.28615 °/min
Orbital period
109.55 mins
BSTAR
0.01024
Loading maneuver chart data...
Computing Atmospheric mass density...
Loading historical data...
Loading historical data...
Loading historical data...
Loading historical data...
Loading historical data...
Loading historical data...
Loading historical data...

Documentation

Showing up to 5 results
|